Regional Weather Roundup
Issued by NWS

Home | Current Version | Previous Version | Graphics & Text | Print | Product List | Glossary On
Versions: 1 2 3 4 5 6 7 8 9 10 11 12 13 14 15 16 17 18 19 20 21 22 23 24 25 26 27 28 29 30 31 32 33 34 35 36 37 38 39 40 41 42 43 44 45 46 47 48 49 50
483
ASUS44 KJAN 230610
RWRMS

MISSISSIPPI HOURLY WEATHER ROUNDUP
NATIONAL WEATHER SERVICE JACKSON MS
1200 AM CST SUN NOV 23 2014

NOTE: "FAIR: INDICATES FEW OR NO CLOUDS BELOW 12,000 FEET WITH NO
SIGNIFICANT WEATHER AND/OR OBSTRUCTIONS TO VISIBILITY.

MSZ001>002-007>008-010>013-018>021-025>028-034>036-230700-
NORTHWEST MISSISSIPPI

CITY           SKY/WX    TMP DP  RH WIND       PRES   REMARKS
CLARKSDALE     FAIR      57  52  82 SE9       29.93S
CLEVELAND      FAIR      56  52  86 E7        29.90F
GREENWOOD      PTCLDY    57  51  80 E3        29.92F
6HR MIN TEMP:  54; 6HR MAX TEMP:  62;

GREENVILLE     PTCLDY    55  50  83 E7        29.89F
6HR MIN TEMP:  55; 6HR MAX TEMP:  62;

GRENADA        CLOUDY    57  50  77 E7        29.94F
OLIVE BRANCH   PTCLDY    57  54  88 SE13      29.93F
OXFORD         CLOUDY    57  50  77 SE7       29.97F
TUNICA         PTCLDY    57  50  77 SE10      29.93S
$$

MSZ003>006-009-014>017-022>024-029>033-037>039-230700-
NORTHEAST MISSISSIPPI

CITY           SKY/WX    TMP DP  RH WIND       PRES   REMARKS
COLUMBUS AFB   CLOUDY    61  54  78 SE15      29.99F
6HR MIN TEMP:  55; 6HR MAX TEMP:  63; 6HR PCP: TRACE;

CORINTH        CLOUDY    59  50  72 SE6       29.98F
GOLDN TRIANGLE CLOUDY    61  54  77 SE13      29.99F
STARKVILLE     CLOUDY    59  55  88 SE13      29.98F
TUPELO         CLOUDY    62  52  69 MISG      29.98F
6HR MIN TEMP:  57; 6HR MAX TEMP:  62;

$$

MSZ040-058-230700-
CENTRAL MISSISSIPPI

CITY           SKY/WX    TMP DP  RH WIND       PRES   REMARKS
JACKSON INTL   CLOUDY    61  56  83 SE10      29.92F
6HR MIN TEMP:  58; 6HR MAX TEMP:  61;

JACKSON HAWKNS CLOUDY    61  55  81 SE14      29.91F
6HR MIN TEMP:  59; 6HR MAX TEMP:  63;

MERIDIAN KEY   CLOUDY    60  56  86 SE7       29.97F
6HR MIN TEMP:  60; 6HR MAX TEMP:  64;

MERIDIAN NAS   CLOUDY    58  56  93 E12       29.99F
6HR MIN TEMP:  58; 6HR MAX TEMP:  63; 6HR PCP: TRACE;

RAYMOND        CLOUDY    61  55  82 SE8G17    29.90F
VICKSBURG      CLOUDY    61  56  83 SE9       29.89F
6HR MIN TEMP:  59; 6HR MAX TEMP:  64;

$$

MSZ059>079-230700-
SOUTH MISSISSIPPI

CITY           SKY/WX    TMP DP  RH WIND       PRES   REMARKS
BROOKHAVEN     CLOUDY    61  57  88 SE7       29.93S
HATTIESBURG    CLOUDY    62  58  86 E7        29.94F
6HR MIN TEMP:  62; 6HR MAX TEMP:  65;

MCCOMB         CLOUDY    61  58  90 E10G17    29.90F
6HR MIN TEMP:  60; 6HR MAX TEMP:  61;

NATCHEZ        CLOUDY    63  57  82 SE14      29.89S
6HR MIN TEMP:  61; 6HR MAX TEMP:  64;

PINE BELT      CLOUDY    61  55  82 E10G16    29.94F
6HR MIN TEMP:  61; 6HR MAX TEMP:  63;

$$

MSZ080>082-230700-
COASTAL MISSISSIPPI

CITY           SKY/WX    TMP DP  RH WIND       PRES   REMARKS
BILOXI         CLOUDY    63  61  94 E12       29.90F
6HR MIN TEMP:  62; 6HR MAX TEMP:  64;

PASCAGOULA     CLOUDY    62  59  90 E8        29.92F
6HR MIN TEMP:  62; 6HR MAX TEMP:  63;

GULFPORT       CLOUDY    63  59  87 E13       29.90F
6HR MIN TEMP:  62; 6HR MAX TEMP:  64;

$$



USA.gov is the U.S. government's official web portal to all federal, state and local government web resources and services.